This is the latest recevied weather packets stored in our database for station/object SQ3MKP-13. If no packets are shown the sender has not sent any weather packets the latest 10 day(s).
| Time | Temp. | Humidity | Pressure | Rain* | Wind** | Luminosity | Snow |
|---|---|---|---|---|---|---|---|
| 1787824022 | 22.78° C | 46% | 1012.9 hPa | - | - | 609 W/m² | - |
| 1787823720 | 22.22° C | 47% | 1012.9 hPa | - | - | 592 W/m² | - |
| 1787823419 | 22.78° C | 46% | 1013 hPa | - | - | 590 W/m² | - |
| 1787823118 | 22.78° C | 47% | 1013 hPa | - | - | 584 W/m² | - |
| 1787822817 | 22.78° C | 48% | 1013 hPa | - | - | 587 W/m² | - |
| 1787822516 | 22.78° C | 48% | 1013 hPa | - | - | 574 W/m² | - |
| 1787822215 | 22.78° C | 47% | 1013 hPa | - | - | 574 W/m² | - |
| 1787821914 | 22.22° C | 48% | 1013 hPa | - | - | 559 W/m² | - |
| 1787821613 | 22.22° C | 48% | 1013.1 hPa | - | - | 552 W/m² | - |
| 1787821312 | 22.22° C | 49% | 1013.1 hPa | - | - | 549 W/m² | - |
| 1787821011 | 22.22° C | 48% | 1013.1 hPa | - | - | 538 W/m² | - |
| 1787820710 | 22.22° C | 50% | 1013.1 hPa | - | - | 532 W/m² | - |
| 1787820408 | 21.67° C | 50% | 1013.1 hPa | - | - | 525 W/m² | - |
| 1787820107 | 21.67° C | 52% | 1013.1 hPa | - | - | 515 W/m² | - |
| 1787819806 | 21.67° C | 51% | 1013.1 hPa | - | - | 506 W/m² | - |
| 1787819506 | 21.67° C | 52% | 1013.2 hPa | - | - | 496 W/m² | - |
| 1787819205 | 21.11° C | 52% | 1013.2 hPa | - | - | 481 W/m² | - |
| 1787818904 | 21.11° C | 54% | 1013.1 hPa | - | - | 470 W/m² | - |
| 1787818606 | 20.56° C | 54% | 1013.1 hPa | - | - | 461 W/m² | - |
| 1787818301 | 20.56° C | 56% | 1013.1 hPa | - | - | 446 W/m² | - |
| 1787818000 | 20.56° C | 55% | 1013.1 hPa | - | - | 439 W/m² | - |
| 1787817699 | 20.56° C | 56% | 1013.1 hPa | - | - | 430 W/m² | - |
| 1787817398 | 20° C | 58% | 1013 hPa | - | - | 416 W/m² | - |
| 1787817097 | 20° C | 57% | 1013 hPa | - | - | 409 W/m² | - |
| 1787816796 | 20° C | 58% | 1013.1 hPa | - | - | 399 W/m² | - |
* Rain since midnight (hover to see other rain measurements)
** Current wind speed in m/s (hover to see current wind gust speed)